Theta_e
330 329 327 326 323 326 321 316 303 306 308 298 298 300 297 302 301 301 301 303 302 305 306 305 304 308 305 305 307 308 306 305 305 301 304 320 334 336 339 340 342 344 347 349 350 350 351 348 350 351 350 350 349 348 349 350 351 351 350 350 348 349 349 349 350 348 347 346 347 347 346 345 345 344 343 342 342 341 341 339 339 339 338 339 339 339 340 341 341 341 341 342 342 341 343 343 343
326 326 325 326 323 321 313 311 305 301 301 297 298 299 299 301 301 301 301 302 304 308 308 307 307 311 312 312 313 312 311 316 312 320 323 327 332 339 341 340 341 343 347 349 350 349 350 352 348 351 350 350 350 350 349 349 350 349 349 348 348 348 349 349 348 347 347 346 346 346 346 345 344 343 342 342 342 341 340 340 339 339 339 339 339 340 340 340 339 340 341 341 343 343 342 342 342
324 325 324 324 320 319 313 312 302 299 297 294 297 299 300 300 301 302 303 304 308 308 311 310 309 309 308 307 307 306 309 319 320 321 325 329 331 335 341 342 344 346 347 349 349 348 350 350 346 350 351 350 350 350 350 349 349 349 348 348 348 348 348 348 347 347 346 346 346 346 345 344 344 342 342 341 341 340 340 339 339 339 339 338 339 340 339 339 339 339 340 341 342 341 341 341 342
327 324 324 324 314 317 309 307 303 299 297 297 297 300 300 301 302 303 305 309 309 306 305 306 307 310 307 304 307 311 312 315 319 323 322 328 334 338 341 341 344 346 349 350 350 350 351 348 346 351 350 349 349 349 349 349 348 348 348 348 348 348 348 347 347 346 346 346 346 346 345 344 343 342 340 340 339 340 339 339 338 338 339 339 339 338 339 338 339 339 341 342 343 341 342 341 341
326 322 325 322 318 309 309 303 301 301 296 297 297 301 301 303 303 304 306 308 306 305 304 307 308 313 313 311 308 308 311 317 320 323 326 332 335 337 340 341 345 346 347 348 348 350 352 342 345 349 350 349 349 349 349 348 348 348 349 349 348 347 347 347 347 346 346 346 346 346 345 345 343 341 340 339 338 338 339 339 338 338 338 339 339 338 338 341 340 341 342 341 343 342 341 341 341
324 321 323 324 312 311 309 303 300 299 300 302 299 300 302 304 304 306 305 306 306 305 304 306 306 307 309 312 315 312 316 312 321 323 328 332 335 338 339 340 344 345 347 349 348 349 352 340 344 348 349 349 349 349 349 349 349 348 348 348 347 347 347 346 346 345 345 346 346 345 345 344 343 341 339 338 337 337 337 339 338 338 337 337 338 340 340 339 339 340 342 343 343 341 341 340 340
322 319 319 315 311 313 304 300 299 300 299 300 301 302 303 304 305 306 304 304 303 304 301 306 307 308 306 311 312 320 324 325 323 327 333 335 337 336 339 340 345 345 348 348 348 348 352 340 344 348 349 349 349 348 348 349 348 347 348 347 347 347 346 346 346 346 345 345 345 345 344 343 342 340 338 337 336 336 336 338 338 338 337 337 336 338 340 342 343 343 343 342 342 341 340 339 339
320 318 314 309 305 309 302 301 300 302 299 299 300 301 303 304 304 306 304 304 303 304 306 308 307 305 305 310 307 318 321 325 328 329 329 332 335 336 339 342 344 344 346 348 348 347 347 338 341 344 347 349 349 349 348 348 347 347 348 346 347 346 346 346 346 345 345 345 345 345 344 343 342 339 337 336 336 335 337 338 338 337 337 336 336 337 337 338 339 341 341 341 339 338 337 338 337
317 314 310 313 303 304 301 300 300 299 299 299 301 301 305 303 303 305 303 303 302 302 307 308 305 302 306 308 308 315 317 322 321 326 331 334 335 337 339 342 343 344 347 347 349 349 349 337 338 341 343 348 349 349 349 348 348 347 347 347 346 346 346 346 346 345 345 345 345 344 343 343 341 338 336 335 335 335 337 337 337 337 336 336 336 335 335 336 337 339 338 339 337 336 336 335 334
313 314 307 308 307 300 300 299 300 300 300 301 301 302 302 302 301 302 305 302 303 303 307 304 303 303 305 306 308 311 316 318 320 330 331 333 336 337 339 344 345 345 346 347 347 348 347 341 336 340 341 347 349 349 348 348 348 346 346 346 346 346 346 346 346 345 344 345 345 344 343 342 340 337 335 334 334 335 337 337 337 336 336 335 334 335 334 334 335 335 335 334 333 332 332 331 331
309 310 313 306 302 299 299 299 300 299 300 301 301 302 302 303 302 301 302 303 302 305 306 304 304 305 306 307 309 311 312 313 327 329 332 334 336 337 340 343 347 346 345 347 348 347 345 346 336 336 338 341 344 348 348 348 348 347 348 348 348 348 346 346 345 345 344 344 344 344 343 341 340 336 334 333 332 334 335 336 336 335 335 334 334 334 333 333 332 332 331 330 330 330 330 330 330
307 308 310 302 300 301 300 299 299 301 300 301 301 302 302 302 302 301 301 301 302 303 306 305 305 308 305 305 308 310 314 321 330 332 333 334 337 339 342 344 346 346 348 347 348 347 343 345 343 339 335 336 338 343 345 347 347 347 348 348 348 347 347 346 345 345 344 344 343 343 342 341 339 335 333 332 331 333 334 334 335 335 334 334 333 332 332 330 328 328 327 327 327 329 329 329 329
311 311 305 302 301 301 300 299 300 301 300 300 302 301 301 302 301 303 303 303 304 304 304 306 307 306 303 305 307 309 314 325 328 331 333 335 335 338 339 340 342 344 346 347 346 346 345 342 344 343 338 330 333 336 339 342 344 346 347 347 347 346 346 346 345 345 344 343 343 342 341 340 337 335 333 331 331 331 331 331 332 334 333 333 333 331 329 327 325 324 323 324 326 328 329 329 328
311 311 308 301 298 300 300 300 299 298 298 302 302 300 301 301 303 302 304 302 303 304 304 303 306 306 305 305 305 307 314 326 329 330 331 335 335 336 336 337 339 340 344 345 344 345 346 344 345 346 344 343 347 338 332 337 340 344 344 344 344 344 345 345 344 343 343 343 341 339 338 337 336 335 333 331 329 329 329 329 331 332 333 332 331 329 327 325 324 322 322 323 326 327 328 328 327
310 306 307 303 299 299 299 298 299 299 300 302 301 300 299 301 300 300 303 303 303 303 304 304 306 304 303 304 305 308 313 326 326 326 329 333 334 333 332 334 335 336 338 340 339 339 338 339 342 345 345 344 343 344 347 342 334 338 340 340 341 342 342 341 341 341 339 339 338 335 334 331 330 330 330 330 330 328 327 326 328 329 331 330 329 328 326 325 324 323 324 325 325 325 325 324 324
311 311 307 302 299 299 299 299 298 299 300 302 299 300 301 301 300 301 302 302 304 305 304 304 304 303 305 305 304 305 313 323 324 323 330 331 331 331 331 330 331 331 333 337 337 333 333 334 337 342 343 342 344 343 343 347 334 333 336 338 338 340 339 338 338 336 333 331 330 330 328 330 328 329 324 328 326 327 325 324 326 326 326 326 325 325 324 325 325 324 323 323 322 321 321 320 319
307 312 302 302 298 297 300 300 299 297 302 302 298 300 301 301 300 301 301 302 303 304 303 306 305 305 305 305 307 307 314 320 319 322 329 329 329 328 329 330 331 330 327 329 331 330 330 331 334 341 339 339 343 342 344 345 342 330 331 330 332 334 335 335 333 327 324 324 326 325 327 334 332 331 330 329 322 327 319 321 324 325 324 323 322 323 323 323 322 321 320 319 317 316 313 313 313
310 304 302 299 301 299 303 301 301 302 302 301 299 301 303 301 301 303 304 303 304 303 303 306 305 305 308 307 309 311 317 322 320 324 327 327 329 328 328 330 332 330 331 329 329 332 333 331 333 337 339 336 341 342 342 343 344 337 346 345 344 338 332 328 335 343 334 340 326 333 338 336 334 333 331 327 328 326 325 320 322 323 323 323 322 323 322 321 321 320 319 317 315 313 312 313 311
306 302 301 299 301 303 304 304 303 302 303 303 302 301 302 303 303 303 302 302 303 302 304 305 305 308 309 307 309 310 318 322 320 326 326 326 328 328 328 328 332 331 329 328 328 328 329 329 329 334 336 336 338 340 342 344 344 345 346 345 345 337 339 340 343 341 343 341 340 339 336 336 334 331 331 330 328 321 325 321 322 324 324 323 322 321 321 320 319 318 317 314 313 312 312 312 312
300 304 299 300 305 302 300 301 302 300 301 301 301 300 300 301 303 304 301 302 301 302 303 303 304 305 307 309 311 312 318 320 322 325 325 326 327 327 328 327 329 330 329 327 327 325 326 326 326 329 332 334 337 338 341 343 343 343 344 344 345 344 343 342 341 341 342 342 342 340 338 337 335 332 323 322 322 326 324 318 318 319 320 320 318 318 318 317 316 315 313 312 312 311 311 309 309
300 301 299 301 299 302 300 299 300 299 300 302 302 299 300 301 302 303 302 301 302 303 306 305 305 306 308 311 311 314 316 319 320 323 325 325 326 328 329 329 329 330 329 322 320 321 323 324 324 327 330 334 334 336 337 340 342 342 344 344 344 344 344 343 340 339 338 340 341 340 339 337 335 329 329 329 327 325 325 324 324 322 320 319 316 316 314 314 314 314 312 311 310 310 309 308 309
304 299 299 298 298 302 299 299 298 299 296 301 300 300 301 301 301 301 302 301 302 305 307 307 308 308 308 309 313 314 315 318 318 320 323 325 325 326 328 330 324 323 321 323 322 320 320 321 324 323 326 330 333 333 334 333 333 341 341 343 345 344 344 343 341 339 338 341 341 340 337 336 332 330 330 329 326 324 323 323 322 320 318 317 316 315 315 315 313 312 310 309 307 307 307 307 306
300 299 299 299 298 300 299 299 297 297 300 301 300 302 301 301 302 302 302 303 305 304 304 306 306 305 305 310 313 313 315 316 318 320 322 324 324 326 325 326 325 324 321 326 324 321 319 322 324 324 326 328 330 330 330 330 333 340 342 342 342 342 343 342 340 339 340 340 341 339 338 335 332 330 331 330 326 324 322 321 319 318 317 317 317 316 315 314 312 309 308 307 307 306 305 305 304
303 300 299 298 297 299 297 299 295 297 299 301 301 301 301 300 300 299 299 304 306 304 302 304 305 303 303 308 311 313 315 316 317 320 322 323 325 325 326 324 325 326 323 323 322 321 321 322 322 324 326 328 330 329 330 331 334 338 340 336 340 339 340 341 340 339 340 339 339 339 338 337 333 330 330 330 328 325 321 320 319 318 318 318 318 316 314 312 310 309 308 306 305 304 303 302 301
301 300 299 298 297 299 298 297 297 296 298 298 298 300 301 301 300 298 301 304 306 305 304 304 304 303 304 307 310 312 315 316 316 318 320 321 322 324 323 323 322 322 323 323 322 321 321 321 321 322 324 325 328 329 329 331 334 337 339 340 339 332 339 340 340 339 339 339 340 339 338 336 335 331 330 330 329 325 324 322 320 319 319 318 317 314 312 310 308 307 306 304 303 301 300 300 299
302 300 300 299 300 299 298 297 297 298 300 299 300 301 300 299 298 298 303 306 304 304 303 305 305 304 305 307 309 311 314 315 316 316 317 317 316 316 318 319 320 320 324 325 322 322 321 320 320 322 323 325 326 327 330 331 334 336 337 338 339 334 338 339 341 339 338 337 338 339 338 337 336 333 330 330 328 323 322 322 321 319 318 317 315 312 311 308 306 305 304 303 301 299 298 298 298
300 300 301 301 299 300 298 300 300 298 300 299 300 300 299 299 298 300 304 303 300 303 304 304 304 305 306 307 308 310 312 314 315 317 316 315 314 315 317 318 318 321 321 321 322 321 320 319 321 321 322 323 324 325 328 330 334 335 336 336 336 336 331 332 337 339 338 337 337 338 338 338 337 336 331 329 327 322 321 321 320 319 318 317 313 310 309 307 305 303 301 300 300 299 297 297 297
300 300 300 301 300 300 300 300 299 301 300 298 300 300 299 299 299 301 305 302 302 303 304 304 304 306 307 307 307 309 309 313 315 316 314 314 315 315 316 316 317 318 317 319 319 319 318 318 319 320 320 322 322 323 325 329 332 333 335 334 333 334 333 332 332 334 334 337 338 338 338 338 336 335 332 329 327 325 322 322 320 319 317 314 311 307 305 305 303 303 301 300 299 297 296 295 296
299 300 299 300 301 301 300 301 300 298 300 298 300 300 298 299 299 304 300 302 302 303 304 304 305 306 307 308 307 308 308 310 312 312 314 316 317 316 316 317 317 316 317 318 317 316 316 317 317 318 319 320 320 321 323 328 331 331 333 333 331 329 330 330 328 327 330 335 337 335 331 334 337 334 330 328 325 324 322 319 317 315 314 314 310 308 306 303 300 299 299 299 296 295 294 294 296
299 301 300 299 300 299 299 298 298 299 300 297 299 294 300 301 303 304 301 301 302 301 303 305 305 306 306 306 306 307 308 309 309 311 313 316 317 316 316 316 316 316 316 316 316 315 316 317 318 319 319 319 321 321 323 325 328 329 330 330 327 326 326 325 325 326 326 328 332 335 334 331 333 333 329 327 325 323 321 318 315 313 312 311 309 305 304 301 299 298 296 295 296 295 295 296 295
300 298 300 298 296 296 298 299 298 299 299 298 300 295 299 302 303 303 299 299 301 302 304 305 305 305 305 306 306 307 308 309 309 310 311 313 314 314 314 315 314 315 315 315 315 316 315 316 316 316 318 318 319 319 320 322 324 325 327 327 327 325 324 323 321 320 322 323 326 328 329 329 331 331 328 326 323 322 319 316 315 314 311 309 308 306 303 299 297 296 296 295 296 296 296 296 295
297 295 295 296 295 297 298 297 298 299 298 298 300 295 298 302 304 301 299 298 299 301 303 304 304 304 304 305 305 306 307 309 309 309 310 310 311 311 312 313 313 313 314 315 315 315 314 315 316 316 317 317 318 318 319 319 320 323 322 319 323 324 320 320 319 318 319 321 322 323 325 325 325 326 328 325 323 321 317 314 312 311 310 308 307 306 302 298 298 298 298 296 294 294 294 294 295
298 296 296 294 295 297 297 297 296 296 297 298 299 297 299 300 302 300 298 299 299 301 303 304 304 304 304 304 305 305 306 307 308 308 308 309 310 310 310 312 313 313 314 314 314 314 313 314 315 316 316 317 317 315 315 316 315 317 316 319 319 321 322 316 315 315 316 319 322 322 322 321 323 323 323 323 321 317 315 313 311 310 308 306 305 303 301 300 299 298 296 296 295 293 294 293 293
296 296 295 297 294 296 294 296 296 298 297 298 298 295 298 301 302 302 298 300 300 300 302 304 305 305 304 304 304 304 305 306 307 308 307 308 309 308 310 310 313 313 314 314 314 313 313 314 315 315 316 316 316 316 315 314 312 311 311 312 312 314 313 313 312 312 313 315 318 320 322 321 321 321 320 318 316 315 314 312 311 310 309 306 304 302 300 299 298 297 295 296 295 293 292 292 292
294 294 294 294 293 293 295 296 296 296 295 296 298 297 298 301 303 304 305 302 300 301 302 303 304 304 305 304 304 304 305 306 307 309 309 308 308 308 309 310 312 313 313 313 313 313 313 313 314 314 314 313 312 312 311 309 308 307 307 308 308 308 308 308 309 310 310 312 312 315 319 322 321 321 317 313 311 310 310 309 308 308 307 306 305 302 300 298 297 296 294 294 295 294 293 293 292
295 296 295 295 293 295 294 297 296 296 297 296 297 296 298 301 302 304 305 303 301 301 302 302 302 303 303 304 304 305 305 305 308 308 309 309 308 308 308 309 311 312 312 312 312 312 311 312 313 313 312 311 310 310 309 308 308 306 305 305 305 304 305 306 307 308 310 311 309 310 313 316 317 315 314 312 311 310 310 309 308 308 307 305 302 300 298 297 296 294 294 293 293 293 294 293 293
297 297 296 294 294 296 296 295 296 295 296 297 298 299 298 299 301 303 304 304 301 300 300 301 303 303 304 304 304 305 305 306 312 308 308 308 308 307 308 309 310 312 312 312 311 311 311 311 311 311 310 309 308 308 308 308 308 307 307 306 305 304 303 304 304 305 307 308 308 309 309 312 313 311 312 312 312 309 310 309 308 306 306 304 302 299 298 296 295 294 293 293 292 292 293 294 293
296 296 295 294 295 294 297 296 294 296 295 297 298 296 298 299 301 302 303 302 301 302 302 302 303 304 305 305 306 306 306 309 307 306 305 307 306 307 307 308 309 309 310 311 310 311 311 311 311 311 309 307 308 309 308 308 310 310 309 306 303 303 302 302 302 303 303 304 305 304 306 308 312 309 309 311 310 309 307 307 306 304 304 303 301 299 297 295 295 294 294 293 294 292 292 294 294
296 295 295 294 295 297 297 294 294 295 295 295 298 296 297 299 300 302 302 302 303 304 304 304 305 305 305 305 306 306 307 307 306 305 305 305 306 306 306 308 309 310 311 310 311 311 310 310 311 311 307 307 307 308 308 308 307 306 306 304 304 301 299 299 299 300 301 301 301 302 302 303 305 305 307 308 308 308 307 306 305 304 304 302 298 296 295 295 294 294 294 293 292 294 293 296 296
296 295 293 293 296 292 292 295 294 294 295 295 296 293 296 299 300 301 303 303 303 305 304 304 304 303 304 305 307 307 306 307 306 305 304 303 305 305 306 307 308 310 310 310 310 310 309 309 310 309 307 307 307 307 305 303 302 301 300 299 299 299 297 297 298 298 299 299 298 299 299 300 302 303 306 308 307 306 305 306 305 305 303 301 298 296 294 294 295 295 295 295 294 291 291 291 296
297 297 296 295 294 295 293 294 295 294 293 292 294 294 296 298 298 299 301 302 301 302 303 303 304 305 305 306 307 306 305 306 306 306 304 303 303 304 305 306 308 309 309 309 309 309 308 309 309 309 307 306 306 303 301 300 299 298 298 297 298 297 298 298 298 297 297 296 295 296 297 299 300 301 303 305 306 305 305 306 305 304 302 302 299 296 295 295 295 296 296 295 294 292 291 293 293
295 297 297 297 297 295 293 294 295 295 295 293 293 290 293 294 296 298 302 301 300 302 301 303 304 304 305 303 303 305 306 306 305 305 305 304 303 304 305 306 307 308 309 309 309 309 309 309 309 308 307 306 303 302 300 300 299 298 297 297 297 297 296 297 298 297 295 295 297 295 295 296 297 298 300 302 303 304 304 304 304 302 301 300 299 298 297 296 296 297 297 297 296 297 296 294 293
293 294 297 297 296 295 295 294 294 290 289 293 293 289 287 295 296 299 300 300 301 303 302 303 304 305 305 305 305 305 305 305 305 304 305 304 304 304 304 305 307 308 309 309 309 309 309 309 308 307 306 304 302 301 300 300 300 300 300 301 302 302 301 300 302 300 299 296 294 294 294 295 296 297 298 300 301 303 304 303 303 303 301 300 299 298 297 296 297 299 299 299 299 299 298 295 294
292 293 293 294 295 294 295 295 295 293 295 296 292 294 289 289 296 299 300 299 300 301 303 304 305 306 306 306 306 306 305 304 305 304 304 304 304 304 303 305 307 308 309 309 308 308 308 308 308 307 306 303 302 301 300 301 301 301 303 305 304 306 305 303 299 297 294 293 293 292 293 293 294 295 296 297 299 301 303 303 304 304 303 303 300 299 298 298 299 300 300 301 300 299 299 298 295
294 291 295 295 296 297 295 295 294 293 290 289 291 296 289 290 295 296 297 296 298 300 302 304 306 308 307 306 306 305 305 304 303 304 303 303 303 303 304 305 307 308 309 308 307 307 308 308 307 307 305 302 300 299 299 300 302 303 306 307 305 305 304 298 296 294 293 292 291 291 291 291 291 293 295 296 297 299 300 302 303 303 303 302 301 301 300 300 299 299 299 299 298 298 300 299 295
291 293 294 294 295 294 295 294 294 292 289 287 290 294 287 289 297 295 295 295 297 300 302 304 306 307 308 306 305 304 301 301 301 301 303 303 303 304 305 306 307 308 308 308 307 307 307 307 306 305 303 301 299 299 299 299 300 302 305 305 304 297 296 295 294 292 292 292 291 291 291 290 290 291 293 294 295 297 299 299 300 301 302 300 299 300 300 299 299 298 298 298 298 298 297 297 296
295 297 297 295 295 295 294 294 293 291 285 289 292 294 291 285 294 295 294 297 299 301 302 304 306 307 307 305 303 302 301 301 301 300 300 301 303 303 304 304 306 307 308 307 306 306 307 307 305 303 302 301 299 298 298 298 299 301 302 304 300 296 294 293 292 291 291 291 290 290 290 292 292 291 291 292 294 295 296 298 299 299 299 298 298 299 298 297 297 297 297 297 297 297 295 296 295
297 297 296 295 293 293 293 291 291 286 285 289 288 293 294 284 290 296 300 298 297 301 302 302 305 306 308 304 302 300 299 300 300 299 300 300 300 301 302 303 305 306 306 305 305 306 306 305 305 303 301 299 298 298 298 298 299 300 301 302 301 296 294 293 293 292 291 291 291 290 291 292 291 291 291 291 292 293 294 295 296 296 296 296 296 297 296 296 296 295 295 295 295 295 295 294 293
296 296 295 288 287 286 284 288 283 285 284 287 287 289 287 287 293 298 299 299 300 300 301 304 306 306 307 303 303 301 300 299 300 300 300 300 300 300 301 302 304 305 304 304 304 305 305 305 304 303 299 297 297 298 298 298 299 299 299 299 300 296 294 294 295 293 293 293 292 292 291 290 290 290 290 290 291 292 293 294 294 294 294 295 295 295 295 295 294 294 294 294 293 293 292 293 292
294 293 291 287 283 282 280 283 282 282 287 287 287 291 285 292 295 299 298 301 302 302 302 304 305 305 306 305 303 300 302 301 301 301 301 301 301 301 302 302 304 304 304 304 304 304 304 304 304 303 299 298 297 297 297 298 298 298 298 298 298 296 295 295 296 296 293 293 292 291 290 291 291 292 291 291 291 292 292 293 293 293 293 293 293 293 293 293 294 293 293 293 292 291 292 293 292
293 300 295 290 288 284 279 282 280 283 286 285 288 285 285 287 294 299 301 302 303 303 303 303 304 304 305 304 301 299 299 300 301 301 301 301 301 301 302 303 304 304 304 304 304 303 303 303 303 302 300 298 297 296 296 297 297 297 296 296 296 296 297 298 299 298 295 294 292 292 291 292 292 293 292 292 291 291 292 292 292 292 291 291 291 291 292 292 292 292 292 291 290 290 290 290 290
295 295 296 290 288 291 284 286 285 283 285 285 283 286 293 293 298 299 299 298 299 299 299 300 301 302 303 303 302 301 301 301 300 300 300 300 300 301 302 303 304 304 304 304 303 303 303 303 303 303 301 298 297 296 296 296 296 296 295 294 294 295 296 297 297 294 292 292 291 292 291 292 293 293 292 291 290 291 290 290 290 290 290 290 290 290 290 290 291 290 289 289 288 289 289 290 289
293 293 289 292 294 293 287 282 282 281 283 282 289 288 292 297 297 298 300 299 299 298 298 299 300 301 303 303 305 304 304 303 301 300 300 300 299 300 301 303 304 304 303 303 303 303 303 303 302 302 301 298 297 296 296 296 296 295 294 294 293 293 294 296 296 293 293 292 292 292 292 293 293 292 291 290 289 290 290 289 289 289 289 290 289 289 290 290 290 290 289 288 287 288 289 288 289
292 288 292 293 297 297 290 284 284 284 281 283 286 285 288 289 286 297 297 297 299 299 300 301 301 302 301 303 304 305 306 304 302 301 300 300 300 299 300 302 304 304 304 303 303 303 303 303 303 302 300 296 296 296 296 295 295 294 293 293 292 293 294 294 293 292 293 291 291 291 292 291 291 291 290 290 289 289 288 288 289 288 289 289 289 289 289 289 290 289 289 288 288 288 288 287 288
295 293 302 292 287 285 290 287 280 280 279 282 287 287 287 290 291 295 295 294 297 299 301 300 300 302 302 303 304 305 304 302 301 299 298 298 298 299 300 301 303 304 304 304 303 303 303 303 303 303 302 298 297 296 295 295 295 295 293 292 291 292 292 293 291 291 290 290 290 290 290 290 290 289 288 288 288 287 287 288 288 288 288 288 288 288 288 289 289 288 287 287 287 288 287 286 286
296 295 293 296 293 290 286 287 287 287 282 280 283 286 286 296 294 297 297 298 300 301 301 300 301 302 303 303 305 306 306 305 303 300 299 298 298 298 299 300 302 303 303 303 303 303 302 302 302 302 302 298 296 295 294 294 293 294 293 292 291 292 292 291 290 290 289 290 290 290 290 289 289 288 288 288 288 287 287 287 287 287 287 287 287 287 287 287 287 287 287 286 286 286 285 284 284
290 292 291 291 290 293 293 291 287 286 284 283 282 282 288 297 300 298 299 300 301 301 302 304 303 303 304 304 305 306 306 306 304 302 299 298 298 298 299 300 302 303 303 303 302 302 302 302 301 301 300 296 295 295 294 293 293 293 291 291 290 289 288 289 289 289 290 290 290 290 289 289 288 288 288 288 288 287 287 287 287 287 287 286 286 285 286 286 286 286 286 285 284 284 284 284 283
293 292 290 292 289 287 284 283 289 286 286 283 283 282 290 299 298 301 301 302 303 304 305 305 304 303 303 303 303 304 306 305 303 300 298 298 297 298 298 300 301 302 302 301 301 301 301 301 301 300 298 296 295 294 294 293 292 292 291 291 290 289 288 287 287 287 288 288 289 289 288 287 287 288 288 288 287 287 287 287 286 286 286 286 285 285 285 286 285 284 283 284 283 284 283 283 283
Wind_Speed
6 2 2 2 2 3 2 3 3 3 3 4 3 2 5 1 2 3 3 3 4 4 2 3 3 6 4 3 5 5 2 4 4 4 4 3 2 2 2 0 1 5 6 5 5 6 7 6 2 7 9 10 10 10 11 11 11 11 11 12 11 12 12 13 13 13 14 13 14 14 15 15 15 15 16 16 16 17 16 16 16 16 16 16 16 16 15 15 16 16 17 17 17 17 18 18 18
3 2 1 2 1 1 2 3 2 1 3 4 4 1 5 3 2 5 6 3 4 3 2 3 4 4 4 3 3 1 4 4 5 4 3 3 2 5 3 2 3 7 7 6 5 6 7 8 5 8 9 10 10 10 11 11 12 12 12 12 12 12 12 12 13 13 13 13 13 14 15 15 15 16 16 16 16 17 16 16 16 16 15 16 17 17 16 16 17 17 17 18 18 18 18 18 19
2 2 3 2 2 1 4 2 1 2 1 3 3 1 3 5 4 5 3 2 7 7 5 6 4 1 2 2 5 3 2 2 2 2 3 2 7 6 4 3 4 7 8 5 5 6 5 7 6 7 9 10 10 10 10 11 11 11 11 11 11 11 12 12 13 13 13 13 13 14 15 15 15 15 16 16 16 17 16 16 15 15 16 17 17 16 16 17 17 17 17 17 17 17 18 18 18
3 2 3 2 2 2 0 1 2 0 3 4 2 4 5 4 5 5 4 8 8 4 2 6 4 2 3 5 1 1 3 3 1 2 6 6 3 4 4 5 3 6 7 5 6 6 5 7 4 5 7 9 10 10 10 10 10 10 10 11 11 11 11 12 12 13 13 13 14 14 14 15 15 15 16 16 16 16 16 16 16 16 16 16 16 17 17 18 17 18 18 18 17 18 18 19 18
2 1 2 4 3 3 1 2 2 1 2 2 3 5 5 3 6 7 7 6 4 0 1 2 2 2 3 3 2 3 3 5 3 2 2 4 1 4 2 4 4 7 7 8 8 6 6 5 4 6 7 8 9 9 9 10 10 10 9 9 10 10 11 12 12 12 14 14 14 14 14 14 14 15 15 15 15 16 16 16 15 16 16 16 16 16 18 18 18 17 17 18 19 19 19 18 18
2 1 4 2 1 2 2 3 3 1 5 1 2 5 6 5 8 9 8 5 1 4 2 3 3 4 3 1 2 1 2 3 4 2 1 5 3 2 1 4 5 7 7 7 7 6 7 6 3 6 9 9 9 10 9 10 10 9 9 10 10 10 10 12 13 12 12 14 14 13 13 13 14 14 15 15 15 15 16 15 16 16 16 15 16 17 17 17 17 18 18 18 19 19 18 17 17
2 2 2 4 4 2 1 2 3 2 4 2 2 5 6 7 7 9 8 5 1 0 2 1 1 2 4 3 2 0 2 2 3 3 2 3 2 2 4 6 6 8 8 7 6 6 6 4 2 4 7 8 10 9 10 10 10 9 9 10 10 10 10 11 13 12 13 13 13 13 13 13 13 14 14 15 15 15 15 15 15 15 15 15 15 17 17 18 18 18 19 19 18 18 18 18 18
2 3 2 2 3 2 3 2 3 1 3 2 3 1 5 7 5 8 8 6 5 4 4 1 2 5 5 1 1 4 1 2 2 2 1 2 2 1 5 6 7 8 8 7 6 5 5 3 1 2 4 9 9 10 10 10 10 9 8 9 9 10 10 11 14 12 13 13 12 12 12 13 13 13 14 15 15 15 15 15 15 15 15 15 14 16 16 16 17 18 19 19 19 18 18 18 18
3 2 1 2 3 1 2 1 2 1 1 2 2 3 3 1 4 5 8 2 2 1 3 5 1 4 5 4 2 4 2 2 1 2 1 1 1 2 3 5 8 7 9 8 7 6 7 4 2 2 2 7 6 10 11 11 9 9 9 9 9 9 11 11 13 12 12 12 12 12 12 13 13 13 13 14 15 15 15 15 15 15 15 15 16 16 16 16 17 17 18 19 19 18 19 19 17
2 3 4 2 1 2 1 2 2 3 0 2 1 4 5 4 4 3 6 5 2 3 2 2 1 3 2 3 4 5 4 5 3 3 1 1 2 4 5 7 8 8 8 8 7 6 6 6 3 1 4 4 6 9 10 9 8 8 9 9 8 9 10 12 13 13 12 12 12 12 13 13 13 13 14 15 15 15 15 15 15 15 15 16 16 16 16 16 16 17 18 19 18 19 18 18 17
2 3 2 3 2 3 2 3 2 3 2 1 3 3 2 5 4 4 2 1 3 2 5 2 5 4 3 2 1 4 4 4 6 5 3 1 2 6 5 7 6 7 8 8 8 7 6 7 3 2 2 3 2 6 7 8 9 9 8 7 7 9 10 11 12 12 12 12 12 12 13 13 13 14 14 14 15 15 15 15 16 16 16 16 16 17 17 17 17 18 18 18 18 18 18 18 18
3 2 2 3 3 1 3 2 3 2 0 2 4 6 3 7 4 5 5 5 6 4 4 8 1 2 3 1 4 5 5 6 6 5 4 2 4 7 6 6 5 6 6 8 8 7 7 6 5 4 2 3 4 2 5 7 8 6 6 7 7 8 9 11 11 11 12 12 12 12 13 13 14 14 14 15 15 15 16 16 16 16 17 17 17 17 18 18 18 18 18 18 18 18 18 18 17
1 1 3 3 2 1 3 2 3 1 2 6 5 4 3 7 8 5 6 0 4 5 6 6 2 2 2 2 4 5 7 7 5 6 4 4 5 4 4 2 2 2 6 5 7 8 9 7 7 7 5 3 2 2 1 5 7 7 6 7 7 8 8 10 10 10 11 12 12 12 13 13 13 14 15 15 15 15 16 16 16 16 17 17 18 18 18 18 18 18 18 18 18 18 18 17 17
1 1 2 3 1 1 3 2 2 5 5 5 2 5 6 4 4 1 4 6 7 6 3 2 2 1 2 1 5 5 6 8 7 5 3 6 5 5 4 3 4 4 4 5 4 4 6 6 6 7 6 4 4 3 4 1 6 7 7 7 7 7 9 9 9 10 11 10 10 10 11 11 12 13 14 15 15 15 15 15 16 16 16 17 17 18 18 18 19 19 19 18 18 18 18 17 17
2 1 3 4 3 2 0 4 6 7 3 8 5 7 5 3 1 2 6 7 5 5 4 0 2 2 2 7 5 4 8 9 6 4 5 7 5 5 4 4 5 4 4 4 3 3 4 3 5 4 7 6 4 4 5 4 1 5 9 7 8 8 8 9 9 9 11 11 11 11 11 12 12 12 12 14 13 14 13 14 15 15 16 16 17 17 18 18 18 18 18 18 18 18 18 18 17
2 2 2 4 4 4 4 2 1 3 3 7 4 0 7 2 2 3 2 4 3 2 2 4 3 3 4 2 5 5 7 7 4 4 7 8 6 5 5 4 5 5 4 5 4 3 3 2 3 5 5 3 6 5 4 6 4 2 5 9 9 9 9 8 9 9 11 11 12 13 13 12 12 11 12 12 13 12 12 13 13 15 16 16 17 17 18 18 18 18 18 18 19 19 19 18 17
0 1 4 2 4 4 5 5 7 4 3 5 5 7 9 6 2 2 2 2 3 4 5 2 4 1 2 3 4 4 6 4 4 6 9 8 6 5 4 4 5 4 2 3 3 4 3 2 2 5 4 4 4 7 6 3 4 5 5 4 8 10 10 9 9 10 10 10 11 12 11 10 10 9 10 11 12 12 12 13 14 15 17 17 17 17 17 17 18 18 18 19 19 19 18 18 17
2 4 2 4 2 7 6 8 9 4 4 8 8 9 7 6 4 3 2 3 1 2 5 3 3 6 4 4 3 4 6 7 7 9 10 9 8 6 6 6 7 7 5 4 3 3 4 2 2 3 3 2 3 5 3 5 4 4 7 7 6 6 8 9 8 9 9 9 10 9 7 7 7 7 9 10 11 12 11 12 13 14 16 17 17 17 17 17 17 18 18 17 15 13 12 9 10
0 2 2 3 4 1 2 2 5 1 1 8 7 5 5 3 9 5 6 6 5 6 6 5 7 7 7 5 5 6 9 8 9 10 12 12 11 12 9 7 11 9 8 5 3 4 2 2 2 3 4 3 3 3 3 4 8 6 7 7 6 7 7 6 7 9 9 9 9 8 7 6 7 8 6 7 8 12 11 11 12 14 16 16 16 17 17 17 17 17 16 14 13 12 9 7 7
2 3 4 2 1 3 1 2 6 2 1 8 7 5 4 1 3 5 5 4 3 9 8 6 8 11 11 9 8 8 11 10 11 13 13 12 10 13 11 10 11 11 9 5 5 2 3 2 1 1 2 3 3 3 3 4 5 7 6 7 6 7 6 6 6 6 7 9 8 7 7 7 7 7 10 15 12 10 10 12 13 14 14 15 15 14 15 15 16 14 11 10 8 7 7 7 7
2 3 2 1 2 2 3 2 2 1 3 4 5 4 4 3 2 6 4 4 9 9 11 10 11 12 8 10 10 9 11 12 12 12 12 12 11 9 11 10 10 10 7 4 2 3 3 2 1 1 1 2 2 2 2 3 4 5 5 6 7 7 7 7 6 5 3 7 8 7 7 8 7 8 8 8 7 8 9 9 8 8 8 9 9 10 9 8 7 7 7 8 7 7 7 7 7
2 3 4 2 1 1 3 1 3 0 2 3 4 8 6 5 2 6 6 10 8 8 9 10 11 5 3 10 10 9 10 11 13 13 14 14 14 12 10 10 4 3 4 6 6 4 3 2 2 1 1 1 2 1 1 1 2 6 7 8 8 8 8 7 7 6 7 7 8 6 8 8 7 7 7 7 8 7 7 7 6 6 7 8 8 8 8 7 7 7 7 7 7 7 7 7 7
3 1 1 1 2 2 2 1 1 3 3 6 7 3 4 7 3 2 7 14 1 5 5 2 2 3 3 3 10 10 11 13 14 15 14 14 14 13 11 9 9 8 6 7 6 5 4 4 3 2 2 3 2 2 1 1 3 5 6 7 8 8 8 9 9 8 9 10 8 8 8 8 8 7 7 7 8 7 7 7 7 7 7 7 7 8 8 7 7 7 7 7 7 8 8 8 9
3 5 4 2 1 2 1 1 3 2 3 4 2 2 5 4 9 2 8 13 7 3 2 1 2 1 1 6 10 12 12 13 14 13 13 13 13 14 12 11 8 6 6 6 6 5 5 6 4 4 4 3 2 2 2 3 3 5 5 6 4 4 8 8 8 7 8 10 11 9 8 9 8 8 7 9 7 7 7 7 7 8 7 6 7 7 8 7 7 7 7 8 8 8 8 8 8
3 5 3 3 1 1 1 1 3 1 1 1 2 6 4 4 2 2 10 13 11 5 2 1 0 1 3 6 8 10 10 10 10 11 8 7 8 7 4 4 6 6 9 7 6 6 6 5 5 5 4 4 3 3 4 4 4 7 6 5 7 4 4 7 8 8 5 8 11 11 10 10 9 9 9 8 7 7 6 6 6 7 7 7 7 7 7 8 8 7 6 7 7 7 7 8 7
2 3 4 3 2 2 3 3 2 1 1 2 5 4 1 1 0 8 16 11 2 2 2 1 1 4 6 8 9 9 10 11 9 10 11 7 5 7 8 7 7 9 10 8 6 5 4 4 4 4 3 3 4 4 5 6 7 8 6 6 4 4 3 4 8 9 7 5 6 8 10 9 10 9 10 8 8 8 7 6 6 6 7 7 6 7 7 7 7 7 7 8 8 7 8 7 7
2 5 3 4 3 1 1 1 2 0 0 1 4 2 1 1 1 8 3 3 3 2 4 1 3 7 7 6 6 7 8 10 11 7 6 7 7 9 9 9 9 11 8 8 6 4 3 3 4 5 5 4 4 5 6 7 9 9 8 7 4 4 3 0 4 6 8 9 7 8 8 9 9 9 9 10 6 9 8 7 6 5 6 6 6 7 7 7 7 7 7 7 7 7 7 7 7
3 4 5 5 3 2 2 1 2 2 2 1 2 2 2 1 1 10 3 2 1 3 4 4 5 7 6 7 5 5 6 7 6 7 11 11 10 10 10 10 10 8 7 8 6 4 3 4 4 5 5 4 5 6 6 7 9 9 5 3 5 4 3 3 3 4 6 7 10 12 8 9 9 10 10 10 8 8 9 7 6 5 6 6 5 7 8 7 7 8 9 8 7 7 7 7 6
3 3 4 2 2 4 2 2 1 2 2 1 1 3 7 7 11 7 4 1 1 2 5 5 7 7 6 5 5 6 8 7 7 8 11 9 7 7 10 8 8 8 5 6 5 4 5 4 4 4 4 4 6 7 6 7 7 9 6 3 3 3 4 4 4 3 3 5 7 9 3 3 8 11 10 10 10 8 8 10 8 6 6 6 7 9 11 9 8 9 9 9 8 7 8 7 6
3 4 2 2 3 5 3 0 0 3 1 1 2 6 4 11 19 5 4 2 1 4 7 7 6 6 5 5 6 7 7 7 9 10 8 8 7 7 9 7 7 7 5 5 5 6 4 3 3 3 3 5 6 6 6 6 8 9 5 3 3 3 4 3 4 4 4 4 6 9 8 5 4 7 11 12 10 9 8 8 10 10 9 10 7 7 8 8 8 9 9 8 7 8 8 7 7
3 1 2 1 2 2 3 0 2 6 3 2 2 7 5 2 3 2 3 1 6 10 10 7 6 6 5 6 6 8 9 10 11 9 9 8 6 5 7 6 8 7 5 6 7 6 5 4 3 3 4 5 5 6 6 7 7 5 3 4 4 4 4 3 3 2 3 4 5 6 7 6 8 7 11 12 12 12 11 9 7 8 10 10 8 6 7 8 8 8 8 9 8 7 7 7 7
2 3 3 2 3 2 3 2 3 5 3 1 4 8 10 9 6 5 2 1 2 7 9 8 7 6 6 6 8 9 9 8 10 10 9 9 9 7 8 8 8 8 8 7 7 6 6 6 6 5 6 7 6 6 6 4 4 4 1 3 3 5 4 3 3 3 3 4 4 5 7 7 7 5 7 12 13 12 12 10 9 9 9 8 7 9 8 8 8 7 6 8 10 8 7 7 7
2 3 1 2 1 1 4 3 1 2 1 1 9 6 3 3 0 1 2 2 1 5 9 9 9 9 8 8 7 8 8 9 9 11 11 10 9 8 8 9 9 10 9 9 8 8 7 7 7 8 9 8 7 6 5 5 4 4 1 3 4 5 5 4 3 2 3 3 5 5 7 6 7 10 6 6 10 9 8 10 10 12 11 10 10 8 7 6 8 8 7 5 8 9 8 9 7
3 2 3 1 3 1 2 4 2 1 3 6 7 6 12 6 1 3 3 3 2 6 10 11 9 6 7 6 8 9 10 9 11 11 13 12 9 10 9 9 9 10 9 9 9 8 8 7 7 8 8 8 7 6 6 5 3 3 2 2 3 3 4 3 3 2 2 0 1 6 8 8 9 10 9 10 7 6 7 8 11 10 9 9 9 9 9 8 7 8 10 7 7 9 8 8 9
3 4 3 3 2 6 6 3 3 3 1 6 6 12 16 15 13 10 10 6 6 10 11 13 12 9 7 7 8 10 10 10 13 9 10 12 11 10 9 9 9 9 8 10 9 8 7 7 8 8 8 6 5 5 6 5 5 4 3 3 4 4 3 3 2 2 1 1 1 3 7 9 11 12 11 9 10 9 9 10 9 9 9 9 9 9 9 8 7 7 10 9 7 7 8 8 9
3 5 2 0 3 4 4 3 2 3 5 7 10 11 14 14 11 11 11 6 8 11 12 11 11 10 10 10 10 10 10 13 8 5 7 8 9 10 9 9 9 9 9 9 9 8 8 8 9 8 8 7 5 6 6 5 5 4 5 4 4 2 3 3 2 2 2 2 2 2 3 4 9 10 10 10 11 11 11 10 11 8 8 9 10 10 9 8 9 10 9 11 10 9 8 9 9
7 4 2 1 3 8 1 2 2 1 3 12 13 13 16 18 15 15 14 5 6 11 14 13 12 10 10 10 12 13 12 13 4 4 7 8 9 9 9 9 10 10 10 10 10 10 10 10 10 10 8 7 6 7 7 7 6 5 4 4 4 3 3 3 3 2 2 3 3 2 3 3 9 10 9 10 11 12 11 11 11 10 7 7 8 10 10 11 9 9 10 8 12 12 9 8 9
3 3 2 3 3 7 2 2 2 2 4 6 3 6 13 16 13 14 13 10 16 15 15 16 16 13 10 13 15 13 12 4 3 4 6 7 8 9 9 9 11 13 12 11 12 11 10 11 11 10 7 7 7 7 6 6 6 5 5 5 4 4 4 3 3 3 3 3 3 2 3 3 7 7 8 10 12 12 12 11 11 11 10 8 7 9 10 11 12 10 10 9 7 11 9 10 9
3 3 2 2 5 6 6 2 2 3 4 10 10 11 13 15 15 16 16 16 15 16 16 17 14 12 12 13 15 13 8 10 6 8 6 7 8 10 10 10 11 13 12 12 11 11 11 12 11 9 7 7 6 6 6 5 4 2 3 5 5 4 2 2 2 2 3 3 2 3 2 3 6 6 5 9 10 11 12 12 11 10 10 10 11 10 10 9 9 11 11 12 11 7 8 6 6
4 4 4 5 1 1 3 4 3 5 5 5 4 12 13 14 16 21 21 15 14 14 15 15 11 14 18 19 13 8 12 10 10 9 9 9 10 10 11 12 12 12 11 11 11 12 11 12 11 10 8 7 6 6 5 4 5 6 7 6 5 3 4 3 4 3 4 4 4 2 1 2 5 6 7 8 8 9 11 12 12 11 11 11 12 12 10 10 10 11 9 10 12 11 8 6 3
3 5 6 4 3 5 5 4 4 5 1 1 9 12 12 10 12 10 7 7 10 17 13 14 14 15 18 14 11 13 14 11 9 7 9 10 11 13 13 12 11 12 12 11 11 11 9 13 13 11 8 9 7 7 7 7 7 7 7 7 6 7 5 4 5 3 2 2 3 3 3 2 3 5 7 8 9 10 8 10 11 11 12 11 10 12 12 12 11 10 11 11 12 13 11 7 4
4 6 9 8 6 5 1 3 8 6 3 3 3 8 3 1 6 6 4 3 8 8 6 12 13 13 12 13 16 13 11 12 12 10 9 11 12 10 11 12 12 12 12 11 10 10 12 13 13 12 8 8 8 9 9 8 7 8 8 7 6 4 5 5 7 8 6 6 7 3 3 3 2 2 4 7 7 10 11 9 10 10 9 8 8 9 10 10 11 11 11 11 11 8 10 9 5
3 2 7 11 2 1 1 1 2 4 4 2 4 3 9 3 6 3 3 6 13 5 7 12 12 10 8 9 9 8 8 8 9 10 8 9 10 11 12 13 14 13 12 10 10 12 14 13 13 11 9 8 8 9 10 8 8 7 10 9 9 8 8 6 5 4 5 4 4 4 4 3 3 5 4 5 5 9 11 10 10 11 10 9 8 8 10 12 10 10 9 9 8 7 7 8 8
3 2 1 3 4 6 4 3 5 6 4 5 5 5 8 13 7 10 10 11 14 12 13 14 12 12 10 8 8 8 6 8 7 8 9 9 11 13 14 14 13 13 12 11 12 13 15 15 14 12 9 8 8 9 10 8 9 8 9 9 8 8 8 8 8 6 3 4 4 4 4 3 2 1 3 3 5 8 10 10 10 10 11 10 10 10 11 10 8 6 8 6 6 7 7 7 8
1 1 1 4 4 3 4 3 2 1 6 8 6 5 3 10 2 3 3 7 10 13 13 13 13 9 5 6 5 4 4 4 5 6 8 9 11 11 11 12 12 12 12 12 13 13 13 14 13 11 10 9 9 10 10 9 8 10 9 8 8 4 4 5 5 5 5 4 5 4 3 3 3 2 2 4 3 6 7 8 8 9 9 9 8 8 8 8 10 10 8 6 6 6 5 4 7
1 5 6 7 6 5 1 2 0 2 2 10 8 9 3 16 5 6 2 3 9 10 10 12 11 9 3 4 3 2 1 3 4 6 6 7 8 8 9 10 12 12 11 12 13 13 13 13 12 11 10 9 9 11 9 10 7 6 7 8 8 5 5 6 5 6 6 5 5 5 4 4 4 4 2 2 4 5 5 6 6 6 7 8 7 7 7 8 7 7 6 6 6 6 3 5 6
11 6 8 4 5 2 2 2 1 1 5 7 14 14 7 11 5 8 8 7 7 7 6 7 9 9 6 1 1 1 2 2 2 3 3 3 4 6 8 10 11 11 10 11 12 13 13 13 13 12 11 9 10 10 10 10 8 7 6 8 9 8 8 8 7 6 6 5 5 5 5 5 5 5 4 3 4 5 5 6 6 7 6 6 6 7 8 8 8 7 6 5 5 5 4 4 4
6 3 3 4 2 2 1 1 1 3 10 2 3 9 9 11 4 5 3 1 4 6 6 8 8 8 2 1 2 1 1 1 1 2 2 3 4 5 7 10 11 12 12 13 13 14 15 15 12 12 11 10 9 10 11 10 8 7 6 7 10 8 10 9 10 11 10 10 9 8 6 5 5 5 5 5 5 5 6 5 5 6 7 7 7 7 7 7 7 6 6 6 5 3 4 5 5
2 5 6 5 3 1 3 2 4 8 8 3 3 2 5 18 14 5 5 7 9 10 8 7 8 8 3 3 1 0 0 1 2 2 3 4 5 7 9 10 11 13 13 15 15 14 15 15 15 14 12 10 10 10 11 10 9 9 7 8 7 8 9 10 12 10 10 9 9 8 8 7 6 6 6 6 6 8 6 7 8 7 7 6 6 6 6 7 7 6 6 5 5 5 4 5 5
6 10 9 6 5 4 7 2 2 5 6 1 1 3 10 7 8 18 24 18 14 8 10 10 10 11 9 3 2 1 1 2 2 3 4 5 6 7 9 11 12 12 14 15 15 15 14 14 15 15 12 12 10 10 10 11 10 9 8 8 7 8 9 9 7 11 10 8 6 8 7 8 9 9 9 8 9 8 7 7 8 7 6 7 7 7 7 6 6 6 6 6 6 4 5 5 6
12 1 9 6 6 4 4 3 6 6 2 1 3 1 5 2 1 1 12 13 8 5 6 8 10 11 11 2 2 4 5 6 4 4 5 6 7 8 8 10 10 11 13 14 14 14 15 14 15 16 13 13 11 11 9 10 9 8 7 7 6 7 8 8 6 7 10 7 5 8 7 6 7 7 8 7 9 9 7 7 7 7 8 7 7 7 6 6 6 6 6 6 5 5 6 6 6
2 1 4 2 8 4 8 2 1 2 3 3 4 7 2 6 4 4 3 5 8 4 6 8 12 12 10 9 8 6 6 6 5 7 7 8 7 8 8 9 10 11 13 13 15 14 15 15 15 15 13 13 12 12 10 10 9 8 8 8 7 7 7 7 4 4 5 5 8 9 8 8 7 7 6 8 8 8 8 8 7 7 7 7 7 8 7 7 7 7 6 6 6 3 6 7 6
7 6 7 4 5 4 2 2 3 1 1 12 2 9 8 8 12 14 14 11 9 3 7 7 12 13 8 10 8 4 5 4 5 7 7 7 7 8 8 9 9 11 11 13 15 15 16 15 16 17 13 11 12 12 11 10 9 9 9 8 8 8 8 9 8 8 10 7 6 7 7 6 5 5 6 6 8 6 6 7 7 7 7 7 8 7 7 7 7 7 6 7 7 6 6 6 5
9 6 7 3 1 4 3 7 1 3 7 6 2 10 12 3 11 4 4 9 10 10 12 13 12 9 7 9 6 7 6 5 5 6 6 6 7 9 9 9 10 11 12 13 14 14 14 15 15 16 12 13 12 12 12 11 10 9 8 9 8 9 10 9 7 8 7 8 7 5 5 5 6 4 5 6 7 7 7 7 7 7 7 7 8 7 7 7 7 6 7 7 6 6 7 5 5
2 0 4 8 4 5 5 1 6 4 5 6 5 6 12 12 14 3 6 8 10 12 13 13 14 13 11 8 8 6 5 4 4 5 5 6 7 8 10 11 10 10 11 12 12 13 13 14 15 16 15 13 13 10 9 7 8 8 6 9 10 9 8 8 7 7 6 7 8 7 7 6 5 6 6 7 8 7 7 6 7 8 7 8 7 7 7 7 7 8 7 7 6 6 7 7 5
2 2 3 4 3 3 7 6 1 1 6 0 6 1 15 8 9 10 13 13 11 11 9 11 16 14 10 8 6 5 4 4 4 3 5 6 7 9 10 11 12 12 12 12 12 12 15 15 15 16 12 10 10 11 9 9 8 9 8 7 7 8 9 8 7 9 8 8 8 8 8 8 7 6 6 8 9 9 9 9 7 7 8 7 8 7 7 7 7 7 7 7 6 7 8 8 6
5 7 8 4 1 4 3 1 2 3 2 3 4 11 13 6 10 9 10 12 12 14 12 10 7 7 9 8 6 5 5 3 2 3 3 5 7 8 9 9 9 10 11 11 11 14 14 14 15 16 14 12 11 11 11 9 9 11 9 10 9 8 7 5 6 7 8 8 7 8 7 7 8 8 8 8 9 9 9 8 9 8 9 8 9 8 7 7 7 8 7 7 7 7 8 7 6
14 16 15 16 11 7 6 6 3 1 3 5 3 12 16 3 5 9 8 9 11 12 10 7 6 8 7 7 8 6 5 4 2 2 3 4 5 7 8 8 8 9 11 13 12 12 15 16 15 15 11 10 12 11 11 10 9 9 11 10 9 8 7 6 7 7 6 7 7 8 8 8 9 8 9 8 9 8 8 9 9 9 8 8 8 8 7 7 8 8 7 5 7 8 8 7 7
Wind_Direction
300 303 292 250 252 252 268 18 244 73 254 60 112 197 101 330 337 202 186 150 188 88 73 123 118 153 228 6 355 37 39 272 8 286 33 68 67 113 155 174 257 171 170 157 153 151 159 142 176 119 116 118 119 117 113 114 110 111 113 111 112 111 106 102 100 99 96 89 85 83 80 76 73 71 70 69 70 70 71 71 72 75 78 80 83 84 86 88 89 89 89 87 87 85 82 79 77
289 303 239 229 285 247 145 298 87 162 87 127 84 303 105 144 212 191 155 201 23 83 119 118 131 85 66 32 50 95 122 30 2 43 82 68 135 135 140 216 192 174 174 157 157 157 150 136 138 127 119 120 121 121 117 119 118 116 115 113 110 109 110 107 104 101 96 89 84 81 79 76 74 72 71 70 70 71 72 72 73 75 78 80 81 83 87 91 91 91 91 89 85 83 80 78 78
311 300 197 234 146 342 114 263 235 52 95 80 107 107 111 173 180 146 77 69 96 100 108 100 107 155 225 215 209 267 86 29 91 88 78 123 148 136 140 155 176 182 165 158 159 158 145 134 145 135 125 124 125 126 127 121 117 114 112 112 112 110 110 109 107 103 95 89 85 80 78 77 75 73 73 73 72 73 74 74 76 77 77 79 81 83 86 88 90 91 88 85 82 82 82 82 80
277 343 268 217 145 239 109 81 56 323 65 45 131 133 182 167 143 95 94 110 113 125 148 147 186 51 280 217 10 141 89 135 52 125 132 178 50 91 129 144 188 188 163 160 164 154 146 133 138 131 127 127 129 130 128 122 118 117 114 114 113 110 109 110 110 105 97 89 84 80 77 77 76 77 77 75 76 76 75 76 77 80 82 81 80 84 89 91 90 89 88 87 87 87 88 84 81
241 39 296 248 252 87 11 41 56 275 61 146 70 141 180 179 128 130 128 129 135 200 328 128 178 81 350 358 88 292 89 70 149 279 62 76 48 48 138 153 190 176 168 174 165 153 129 95 121 136 136 133 133 134 129 126 122 119 118 114 112 113 113 114 114 106 101 94 86 82 80 78 78 78 78 78 78 78 77 78 79 78 80 83 86 90 89 84 85 86 86 86 86 83 79 80 81
254 295 36 285 8 34 180 161 134 82 44 16 138 147 166 157 145 141 141 168 175 260 310 249 329 145 177 106 357 340 119 167 103 162 265 98 17 358 150 166 196 179 172 177 162 161 146 104 118 150 148 144 139 138 134 128 125 122 125 120 117 118 118 117 112 104 102 98 93 90 86 83 82 81 79 79 79 79 80 80 80 82 82 82 85 84 86 90 86 87 89 86 80 79 80 80 81
277 231 50 94 110 255 10 71 100 96 90 333 35 129 159 149 137 143 150 169 192 175 139 290 217 192 179 128 166 12 19 352 193 84 303 56 356 330 168 172 200 182 174 170 164 161 142 111 49 169 154 152 146 144 140 137 132 130 131 130 125 123 122 119 115 115 107 105 102 97 92 89 87 84 85 84 81 81 81 82 82 82 83 83 85 88 87 83 84 84 81 80 81 80 79 80 78
120 248 17 192 64 299 92 63 100 321 93 281 358 1 141 148 143 173 160 202 153 222 157 202 233 285 54 258 184 106 97 250 360 43 41 341 347 303 179 183 190 178 178 169 168 172 134 169 114 26 168 157 152 148 146 146 139 140 137 138 133 127 124 121 122 120 113 109 105 100 96 92 88 87 88 87 86 84 84 83 83 83 83 84 86 89 88 86 83 80 83 82 80 81 81 76 67
18 52 252 177 114 64 139 103 64 55 64 201 218 285 346 118 182 183 170 181 81 233 172 182 182 248 117 171 79 111 167 155 179 53 19 311 299 203 194 216 179 179 175 169 163 165 174 144 180 328 313 170 156 148 152 148 141 140 141 144 139 132 129 127 124 122 117 112 107 103 99 94 91 89 89 87 87 87 87 87 87 86 84 82 82 86 89 89 86 82 79 80 80 77 71 69 70
85 305 136 61 83 116 99 134 220 111 127 118 267 161 177 168 173 245 180 187 189 155 141 47 254 306 130 177 136 175 154 153 151 156 189 264 229 196 202 207 179 177 178 168 162 161 175 159 162 318 335 212 166 159 157 146 142 143 145 148 143 131 130 131 130 129 124 118 113 107 102 96 94 92 89 89 89 88 87 88 89 88 87 88 89 89 89 88 85 83 80 83 82 79 75 73 71
126 52 356 169 166 133 208 136 204 142 191 138 224 204 163 168 184 169 194 94 108 204 141 212 199 194 207 141 31 57 99 152 176 165 157 175 200 190 205 196 182 182 177 175 168 148 170 170 129 235 313 4 310 167 162 148 150 156 149 144 136 132 135 135 134 133 128 123 115 107 102 99 95 92 90 90 91 89 89 88 89 89 90 91 90 88 88 84 81 77 75 74 75 75 75 75 73
148 156 187 167 180 243 146 170 169 121 178 225 164 161 168 176 193 185 184 207 168 189 188 185 112 137 194 181 149 143 141 169 174 137 148 155 169 177 178 194 193 177 183 177 172 155 161 183 184 171 314 33 12 173 173 159 154 160 149 141 137 132 136 135 137 135 128 122 116 108 102 99 97 95 93 91 90 90 89 90 90 91 91 91 92 90 86 83 81 80 79 78 79 79 79 77 75
110 270 155 166 81 258 75 189 137 88 192 210 173 148 141 176 192 201 179 174 163 181 200 189 56 248 204 183 74 129 172 161 137 148 145 165 155 160 164 161 186 179 184 166 186 175 152 182 185 174 190 28 51 357 198 169 150 158 153 141 139 135 134 139 139 134 128 124 118 107 101 98 96 96 95 92 91 91 91 90 92 93 93 93 93 92 90 88 85 84 83 83 83 83 82 79 75
169 294 187 173 353 115 170 96 87 201 201 144 84 115 175 195 207 305 165 197 187 207 68 102 186 221 269 243 154 174 166 145 148 151 159 161 144 156 146 158 145 123 125 167 153 183 173 165 173 187 170 210 173 161 89 95 160 158 150 143 136 140 138 140 139 133 131 120 103 98 99 95 95 95 96 94 94 93 94 93 93 94 95 95 96 95 94 92 90 88 88 86 85 84 81 77 72
92 233 76 107 121 186 143 185 185 203 179 159 135 154 171 247 336 209 208 226 170 57 114 256 308 235 114 204 136 155 144 149 151 152 156 159 144 131 119 129 111 82 106 163 145 128 106 95 134 175 178 189 176 231 186 134 194 174 152 148 141 143 141 141 141 134 130 126 117 107 99 96 94 94 94 95 91 92 92 94 96 97 98 98 98 98 97 96 94 90 86 84 83 80 77 73 69
91 152 86 152 151 212 161 226 318 217 172 170 127 130 181 109 225 195 181 344 73 72 212 168 209 269 343 322 61 87 110 134 142 157 154 156 143 134 128 125 113 107 117 147 147 86 101 102 132 138 158 170 195 197 249 169 117 152 169 149 147 147 146 143 138 130 132 128 120 115 112 111 108 104 103 98 92 89 91 96 96 98 99 100 100 100 99 97 93 90 87 85 82 79 74 70 66
262 275 160 135 182 211 149 198 162 200 115 146 122 175 187 180 129 302 352 264 214 152 208 205 195 139 250 49 79 92 117 135 136 166 153 155 156 153 155 149 122 128 118 124 136 129 113 136 161 152 109 124 174 179 215 155 112 140 155 157 148 154 148 141 126 123 129 129 127 125 132 127 123 121 117 109 106 98 96 97 99 100 100 99 99 98 97 94 92 90 89 88 86 83 78 70 61
256 187 186 196 80 195 158 191 187 18 181 164 178 191 194 181 165 146 176 179 302 131 223 184 234 238 241 103 99 103 130 159 169 169 168 164 170 164 171 171 165 174 167 152 141 131 158 139 98 130 143 128 173 170 204 183 177 210 181 167 164 169 141 133 146 149 149 144 136 146 138 136 134 124 116 113 105 108 98 96 100 103 103 100 98 96 94 93 92 92 90 88 87 86 88 85 76
112 104 232 235 167 97 186 170 147 186 130 165 164 176 233 189 163 157 210 187 193 222 223 210 241 230 185 172 156 162 155 171 180 185 180 182 182 181 178 176 190 179 182 165 156 135 132 122 137 157 154 162 164 180 170 202 199 193 190 187 164 169 147 155 163 158 164 155 160 155 144 138 132 128 121 92 97 87 92 94 96 100 101 98 96 95 92 92 91 91 87 84 82 83 82 80 75
48 242 200 230 151 69 230 156 150 328 296 153 160 167 235 85 185 119 229 177 176 225 217 199 233 235 203 166 161 160 169 179 189 194 195 196 195 188 187 181 193 188 180 170 154 139 136 128 97 105 149 154 192 184 167 178 217 197 200 191 172 177 164 173 163 175 168 167 169 167 152 137 133 114 100 110 114 111 97 87 88 91 94 95 99 95 90 87 89 84 77 80 78 73 75 77 74
111 230 229 80 91 198 117 224 82 63 318 154 151 113 211 153 163 186 183 216 223 233 232 228 223 228 203 154 160 164 176 182 194 205 203 198 200 197 194 189 192 193 172 139 143 165 144 147 156 149 217 175 168 171 174 182 209 200 201 211 189 186 186 182 174 173 174 176 168 173 154 140 128 131 139 132 127 124 124 125 125 123 121 116 116 110 111 110 100 90 82 74 72 69 70 69 71
141 23 18 69 138 120 78 155 47 350 339 167 132 169 195 94 156 216 199 223 236 224 224 218 243 265 147 159 163 167 180 185 194 203 207 200 199 196 192 186 160 127 132 176 179 162 158 166 178 172 223 214 161 202 133 132 302 218 209 213 204 195 185 177 180 178 171 188 167 164 151 141 139 146 149 135 131 136 141 137 132 130 128 124 125 117 113 108 100 91 82 77 71 69 68 66 63
155 105 184 215 359 47 68 141 154 206 164 171 181 180 88 185 201 196 235 233 243 55 51 351 318 28 52 125 153 176 185 193 194 202 203 202 200 202 194 189 182 182 179 193 166 163 162 183 178 200 200 195 181 151 134 193 223 231 220 214 222 204 192 183 181 180 180 177 177 161 164 151 153 154 150 147 142 144 141 139 135 135 137 129 124 119 111 106 100 94 87 83 80 74 71 69 68
296 128 150 144 264 12 53 72 125 208 206 181 65 70 207 158 229 109 234 240 252 96 65 8 352 5 168 179 183 189 191 194 200 203 204 206 202 202 194 187 188 180 184 180 177 172 176 179 179 198 202 207 186 185 199 221 219 225 225 215 236 206 189 193 179 171 186 179 177 172 173 157 160 157 155 160 150 143 144 141 139 138 135 128 124 116 114 105 98 92 90 87 85 78 72 70 71
135 128 190 108 230 12 336 104 173 200 197 39 199 186 206 217 282 52 247 245 245 217 153 240 3 170 188 215 200 201 196 199 208 205 205 209 205 196 181 192 188 190 202 193 181 183 181 181 188 196 190 199 213 208 220 218 208 217 213 219 212 185 196 197 185 178 197 192 183 176 176 169 169 164 164 160 159 141 141 135 137 138 132 129 125 115 111 109 102 99 93 90 83 81 78 70 69
353 74 128 134 110 76 103 134 172 213 137 195 183 202 46 351 319 253 250 246 109 50 218 161 197 212 212 217 214 203 202 203 202 205 209 204 202 197 199 203 198 207 209 202 187 200 184 187 209 220 219 212 207 224 226 220 214 217 210 218 187 168 228 213 183 180 179 181 189 174 178 172 175 172 169 168 154 135 135 128 124 131 130 127 123 118 113 109 106 102 97 94 91 86 80 71 71
90 109 88 96 41 124 115 232 124 96 255 199 243 230 192 57 260 266 100 16 350 193 208 141 222 231 224 224 221 216 215 212 204 200 195 200 199 207 201 195 200 208 200 205 207 206 177 188 211 216 216 218 229 224 225 227 223 223 220 216 206 197 167 271 231 198 184 183 186 179 193 188 176 175 161 168 150 141 139 137 124 121 125 121 117 109 104 100 101 99 100 99 98 94 87 82 77
66 116 125 92 72 60 70 90 67 298 157 233 274 269 320 266 161 247 100 60 6 226 213 216 223 235 234 230 231 226 229 226 210 200 209 197 203 201 200 194 198 195 190 201 202 191 194 212 215 216 220 212 227 231 230 232 226 226 207 193 220 203 191 183 201 217 192 191 192 187 199 194 179 173 159 164 152 148 139 121 101 104 98 108 104 116 104 97 101 101 92 88 89 88 83 78 75
106 206 172 88 140 196 80 206 57 293 161 187 175 251 234 183 237 225 98 103 81 255 248 228 235 238 239 240 233 229 228 223 214 218 219 213 205 199 202 195 187 189 195 196 187 174 203 204 218 217 222 230 231 233 231 229 227 229 215 183 181 186 199 188 179 204 201 208 199 185 140 258 178 168 156 151 150 145 126 129 126 111 93 83 103 107 106 106 107 104 99 101 93 87 86 86 85
184 86 358 172 195 225 103 134 103 226 121 167 211 267 224 208 229 183 143 116 120 259 248 232 233 235 238 232 236 239 228 222 223 223 218 215 208 202 206 189 185 191 184 183 179 196 188 188 203 216 224 228 229 228 226 218 223 226 208 159 146 183 193 179 188 194 191 198 207 191 184 175 157 144 152 151 144 141 142 137 132 131 134 127 126 126 117 118 114 112 112 105 102 98 99 101 100
194 55 260 335 228 185 109 11 63 228 107 210 226 256 252 153 212 85 64 251 238 259 259 244 235 237 236 233 238 239 235 224 229 224 219 217 216 207 204 196 184 194 183 184 193 198 187 194 196 211 206 219 214 212 213 211 211 213 175 155 169 183 189 182 183 191 189 177 183 171 161 160 159 157 155 151 150 152 148 135 124 132 139 140 137 119 118 110 117 120 126 114 106 100 97 97 97
47 210 183 155 240 124 137 117 203 238 114 260 207 260 259 270 272 63 23 138 192 251 263 260 247 241 237 238 241 244 242 227 230 230 223 218 214 211 200 203 189 189 195 190 188 183 195 194 193 206 203 204 200 199 194 183 192 204 150 138 146 179 165 174 173 174 179 173 164 149 153 148 138 136 168 154 158 158 150 137 133 130 123 117 114 119 121 129 128 118 109 115 114 107 108 100 96
46 280 129 189 234 321 289 123 333 352 51 195 228 265 65 240 93 50 52 119 178 261 270 268 256 249 243 240 239 246 250 236 230 226 218 211 211 205 200 203 194 192 192 190 188 183 193 187 195 202 202 197 194 177 175 167 156 178 159 133 126 159 174 155 150 158 172 183 169 147 147 136 148 132 123 135 142 136 128 132 141 141 139 134 134 132 128 127 126 118 106 103 116 120 113 108 101
200 35 257 44 247 141 237 109 129 6 269 207 221 251 247 264 224 191 162 155 175 261 265 266 260 248 243 245 244 245 244 243 233 219 209 202 204 198 201 199 197 190 192 193 192 188 192 187 197 202 194 194 184 173 169 157 124 107 92 93 94 113 100 117 129 130 149 151 143 143 156 143 152 137 132 128 114 107 122 130 138 140 136 134 133 133 129 129 124 123 120 113 115 117 119 118 111
182 172 214 206 217 239 283 276 100 219 145 253 223 243 260 257 263 267 266 167 237 260 262 266 268 259 248 239 244 244 243 240 240 220 199 193 196 193 198 195 195 193 193 193 191 187 186 190 197 185 182 179 150 135 137 121 114 100 85 85 97 97 101 98 111 105 53 28 26 120 153 161 157 151 139 130 124 123 124 124 125 135 140 141 132 128 130 129 123 126 124 120 109 109 119 119 117
149 183 184 218 240 195 222 214 88 255 239 246 236 250 264 264 259 260 260 205 237 259 267 265 259 254 251 248 246 243 239 244 239 183 182 188 194 189 190 190 194 194 195 193 192 187 191 193 199 188 184 177 144 153 152 142 140 138 129 107 94 88 112 121 116 122 149 133 116 81 153 176 146 139 140 135 131 133 135 142 141 146 146 139 132 130 132 134 133 128 127 125 119 110 112 121 125
93 92 154 197 269 274 176 171 84 224 271 252 250 253 265 272 271 273 274 247 236 250 256 257 253 247 242 243 244 243 240 245 106 183 191 192 188 189 187 187 192 193 196 194 191 191 193 196 195 192 180 175 159 168 174 163 157 143 145 151 139 146 140 128 120 123 129 121 115 120 94 207 144 131 137 141 140 140 140 140 139 143 146 139 136 140 140 137 138 130 127 128 131 128 129 136 134
142 136 215 211 195 272 91 115 117 174 233 277 197 258 264 270 274 270 269 262 263 257 252 250 251 246 246 246 247 242 244 238 172 199 187 183 189 186 186 190 191 193 198 193 196 191 192 199 199 194 179 174 177 172 165 173 169 171 166 161 142 140 142 145 137 140 122 115 123 111 98 158 141 144 142 144 145 144 141 143 146 146 143 145 132 129 131 136 141 139 139 130 134 135 139 154 154
121 232 146 282 252 272 281 74 147 183 194 264 278 268 262 262 266 267 259 253 253 254 249 256 265 265 255 250 246 249 243 247 208 223 178 189 183 186 192 196 199 202 194 193 194 190 194 201 203 192 171 171 178 171 169 172 153 98 132 135 141 120 44 27 71 98 116 114 84 97 116 138 142 146 148 146 145 148 144 141 145 145 148 138 131 134 144 149 152 149 157 145 138 138 144 163 179
177 158 179 237 55 331 280 129 94 160 220 305 319 291 272 263 251 250 252 250 260 258 260 262 257 259 257 255 255 250 249 246 232 207 194 184 187 190 195 199 199 196 195 192 191 193 196 203 200 189 173 173 176 171 150 109 97 97 78 91 82 86 132 106 88 97 104 106 104 81 103 150 144 143 155 155 143 141 145 146 146 150 149 151 147 147 153 156 158 158 161 151 143 143 163 183 215
213 213 219 237 194 223 239 329 311 169 252 356 279 272 261 223 242 249 253 258 256 264 263 262 253 241 249 262 270 255 259 255 246 208 183 184 192 199 198 197 192 194 194 190 189 189 198 201 195 192 176 176 173 154 142 132 123 108 104 92 92 94 92 103 112 98 98 88 98 146 162 149 142 141 154 160 153 146 142 144 148 149 153 159 151 151 161 168 164 163 160 153 164 155 162 166 194
186 227 226 235 238 251 238 328 332 290 251 117 317 319 281 208 244 253 275 276 252 243 248 257 254 247 243 246 252 257 240 242 249 245 203 192 197 195 196 194 196 198 198 195 190 193 199 199 195 190 173 172 164 157 151 153 155 144 146 146 149 150 144 158 169 167 171 170 171 150 119 131 124 109 160 168 155 145 147 147 145 151 154 155 158 155 156 154 165 170 173 164 168 179 157 155 154
225 213 209 235 240 333 238 230 286 267 277 109 298 326 288 170 208 187 252 252 262 236 232 256 259 252 237 240 247 246 242 243 232 236 223 189 194 190 193 194 195 196 196 186 192 200 201 198 193 181 173 168 162 162 163 163 161 165 167 170 166 168 165 180 168 153 161 132 128 153 133 122 137 152 157 160 149 147 149 153 154 154 157 160 158 150 156 167 170 171 170 173 169 162 159 153 160
213 63 143 155 185 210 223 215 224 276 344 263 170 208 289 288 206 212 240 255 270 282 274 267 259 257 250 248 250 246 240 233 229 222 216 205 193 192 196 194 193 197 189 183 196 205 200 198 193 183 177 170 163 165 173 175 170 174 178 179 176 176 177 166 157 145 118 128 134 136 135 127 117 107 150 161 157 147 154 157 160 160 162 166 165 165 164 165 164 163 169 168 159 164 171 160 156
59 90 192 136 165 169 156 204 241 307 351 286 137 167 223 267 111 1 205 244 255 259 262 267 271 263 234 264 263 262 258 256 239 224 209 199 197 198 196 191 193 190 185 185 200 202 197 198 191 177 179 169 167 170 173 181 180 181 182 173 173 160 135 118 123 122 133 134 137 135 129 122 108 91 141 164 139 150 158 163 161 161 161 161 163 157 157 161 164 162 164 160 167 172 178 152 150
170 126 90 90 88 75 145 138 184 254 332 268 145 189 240 279 160 160 11 245 261 256 257 261 269 278 284 262 245 227 276 256 242 242 228 206 199 195 193 187 185 188 182 185 199 199 198 197 189 175 174 173 169 176 179 182 191 189 182 173 162 134 123 125 133 143 146 151 153 145 143 149 145 139 133 123 127 140 147 146 156 159 152 151 161 154 139 140 144 153 162 167 169 170 148 149 159
132 167 105 87 72 85 92 60 71 267 242 251 154 193 214 281 174 179 171 205 209 224 251 268 272 282 273 243 253 255 240 234 241 232 230 213 191 185 180 187 185 180 179 187 199 199 198 196 188 179 180 176 173 176 177 182 187 194 190 175 160 149 147 145 141 144 142 156 158 157 162 163 155 145 146 142 132 137 136 147 153 149 148 149 145 137 155 158 157 157 153 152 160 164 165 139 113
156 148 140 138 141 147 182 154 148 237 260 136 293 198 215 233 219 227 222 60 250 232 222 246 263 271 273 114 146 140 260 258 257 241 206 196 178 183 185 190 186 183 182 194 198 196 196 195 185 180 178 175 173 179 183 183 183 188 191 178 169 167 158 161 164 162 171 169 168 168 168 153 147 142 149 146 143 143 149 146 133 136 144 148 149 156 154 156 151 146 154 166 157 129 116 129 130
216 148 158 195 212 103 225 178 218 200 245 90 57 124 300 238 244 326 276 247 244 226 234 245 265 272 248 170 170 103 348 246 233 220 202 194 194 187 190 191 185 188 190 195 197 196 197 195 189 184 179 173 178 183 186 184 183 188 180 180 169 163 176 177 168 167 169 170 168 162 163 165 154 160 167 156 153 159 157 150 154 156 152 156 150 147 138 140 145 152 151 141 135 142 147 142 144
195 185 176 186 225 217 256 199 331 324 276 79 182 155 253 306 276 227 247 237 232 219 220 244 258 263 269 138 185 206 261 261 246 220 216 206 198 194 194 191 191 191 192 198 198 197 196 195 191 192 178 177 178 181 184 183 188 185 179 179 170 173 178 185 183 177 173 165 162 163 167 172 169 174 166 166 160 160 163 158 156 150 144 140 143 141 141 141 143 144 138 136 129 121 118 110 108
200 93 181 205 184 185 215 192 237 252 291 114 204 154 235 157 122 281 239 251 250 236 244 243 255 259 269 265 234 245 258 244 225 231 222 213 205 198 195 194 194 193 192 198 200 198 196 196 193 192 178 179 179 182 183 184 184 183 178 180 171 172 175 189 184 177 180 162 160 170 173 170 176 167 166 150 151 159 153 147 146 141 141 144 142 138 132 133 132 126 126 119 117 118 116 116 118
162 328 16 294 229 75 258 338 294 354 327 271 164 228 234 220 8 269 232 285 261 231 256 259 262 260 253 262 240 222 230 237 218 230 227 217 207 200 199 198 196 193 192 197 202 199 198 198 194 195 184 174 179 182 186 184 185 183 177 173 177 174 181 187 170 140 175 169 170 176 177 178 178 159 139 141 148 146 148 142 136 134 133 135 137 136 137 138 137 132 126 124 115 106 118 112 116
168 143 214 205 2 194 80 107 87 129 253 255 169 268 247 278 246 220 238 224 228 223 247 243 247 251 256 254 256 227 228 212 212 220 222 210 202 203 205 201 196 193 194 198 200 201 200 197 197 197 187 167 180 186 187 185 182 177 180 179 173 172 178 184 185 179 181 183 172 179 173 172 143 139 134 140 138 138 136 135 133 132 134 134 133 137 137 136 134 126 124 119 118 122 116 115 115
105 212 199 93 96 3 186 242 148 216 243 274 123 254 282 295 294 97 203 237 242 230 237 237 241 246 248 251 252 244 233 228 221 226 222 213 203 203 203 205 202 199 198 197 199 198 202 201 197 195 183 171 182 184 187 185 182 182 177 180 179 179 185 188 182 176 174 170 177 170 149 147 160 142 141 134 133 129 124 133 128 129 127 130 134 134 133 133 126 114 115 114 120 126 117 108 104
292 41 139 176 193 206 190 211 237 212 234 270 244 265 262 220 247 167 179 189 223 229 232 234 242 239 232 237 240 227 224 239 229 224 215 210 206 203 200 199 200 201 199 199 195 196 202 202 203 202 197 180 181 181 183 176 179 188 178 180 178 181 187 182 175 170 165 173 171 167 162 158 133 136 142 135 129 128 134 133 133 135 137 136 133 132 133 131 123 119 119 121 131 135 122 114 107
44 102 186 6 316 247 161 206 314 219 269 32 274 205 275 177 221 201 231 193 213 220 211 225 229 227 214 220 231 230 221 205 209 202 209 207 206 204 199 196 195 197 201 201 193 197 203 203 202 203 197 171 173 179 177 182 177 188 181 181 182 185 184 174 163 167 177 181 174 165 156 147 151 148 151 144 141 145 149 147 145 139 137 136 136 137 138 130 126 125 131 132 138 129 118 120 122
176 196 193 167 207 335 334 10 209 227 237 249 297 294 262 233 165 174 204 191 201 215 217 219 225 230 218 213 212 216 218 200 178 197 208 207 208 197 196 199 197 196 198 202 192 197 202 203 205 204 193 172 178 183 180 184 184 190 177 184 178 172 168 155 155 170 176 178 167 163 159 151 144 160 155 156 150 149 148 147 141 142 145 146 145 144 143 138 131 130 127 130 133 127 123 127 132
182 184 195 185 158 179 179 223 88 250 224 233 220 252 273 110 139 176 189 193 196 211 216 204 204 223 217 201 204 201 196 192 203 215 198 211 208 196 189 188 193 199 200 201 194 192 203 206 206 203 191 179 181 183 180 177 177 179 184 186 176 165 163 160 162 164 168 164 162 165 156 147 162 158 162 156 151 145 147 146 144 145 147 145 145 143 143 137 129 127 127 132 134 131 128 132 138